Address 0x64ab414e740a6dd04fec8354c9d5c04d866baeec

 
 
Txn Hash Method
Block
From
To
Value [Txn Fee]
0xb4e0aebc52541ba594d0b1ab286ca6b6e97307920b50a8bc39572ad91e94e9c9Transfer120470482021-10-24 10:04:153 mins ago0x64ab414e740a6dd04fec8354c9d5c04d866baeecOUT 0xbbf33a3c83cf86d0965a66e108669d272dfe42140 BNB0.00025624
0x9d96c0c848daee60ec935532eaf24d5c55e8996cdb108b15050474cd99d7810dTransfer120469902021-10-24 10:01:216 mins ago0x64ab414e740a6dd04fec8354c9d5c04d866baeecOUT 0xbbf33a3c83cf86d0965a66e108669d272dfe42140 BNB0.00018124
0x98f8f0292c16fd29aa907ce044fecd67c0eb89dd1932a57e88d9032a504b359cTransfer120469582021-10-24 9:59:428 mins ago0x64ab414e740a6dd04fec8354c9d5c04d866baeecOUT 0xbbf33a3c83cf86d0965a66e108669d272dfe42140 BNB0.00018124
0xf6e3219d293d1368ce693b3d1dd176cfb3c171188957ee9408ae4d93968f7fcfTransfer120468712021-10-24 9:55:1512 mins ago0x64ab414e740a6dd04fec8354c9d5c04d866baeecOUT 0xbbf33a3c83cf86d0965a66e108669d272dfe42140 BNB0.0002563
0xd72cfded29c972a6b9ebf832e662cfbfb8aad804518c76c6f3522df1ca08abb8Transfer120464022021-10-24 9:30:4536 mins ago0x64ab414e740a6dd04fec8354c9d5c04d866baeecOUT 0xbbf33a3c83cf86d0965a66e108669d272dfe42140 BNB0.0002563
0xb958551b195e17071aaf03f4ad3e307ccc02a38fda5d46e7973653a583a94dfaTransfer120461082021-10-24 9:16:0351 mins ago0x64ab414e740a6dd04fec8354c9d5c04d866baeecOUT 0xbbf33a3c83cf86d0965a66e108669d272dfe42140 BNB0.0001813
0x36a962715b5bf9434eb26512e9d438cc448d403d989cc72929a79471405828afTransfer120458702021-10-24 9:04:091 hr 3 mins ago0x64ab414e740a6dd04fec8354c9d5c04d866baeecOUT 0xbbf33a3c83cf86d0965a66e108669d272dfe42140 BNB0.00018124
0x641bcdfc428da7d2a48e0ebc1a5cf41ff77850bf3b46a6afd22f562118439cc7Transfer120452222021-10-24 8:31:411 hr 36 mins ago0x64ab414e740a6dd04fec8354c9d5c04d866baeecOUT 0xbbf33a3c83cf86d0965a66e108669d272dfe42140 BNB0.0001813
0x0fe2759995faa0b991aa2e03dfbaf45c7727e17824b579296795c8d3429d2a1dTransfer120451562021-10-24 8:28:231 hr 39 mins ago0x64ab414e740a6dd04fec8354c9d5c04d866baeecOUT 0xbbf33a3c83cf86d0965a66e108669d272dfe42140 BNB0.00018124
0x1d696d9cf9e9af22d02caa772c639d9169b9b516a2c64eb37825a570c586e656Transfer120451332021-10-24 8:27:141 hr 40 mins ago0x64ab414e740a6dd04fec8354c9d5c04d866baeecOUT 0xbbf33a3c83cf86d0965a66e108669d272dfe42140 BNB0.00018124
0x8e2c771bad48b8b2a151374e1f65fcd66b240f73f1467889c15cfd5e52e27c04Transfer120446682021-10-24 8:03:542 hrs 3 mins ago0x64ab414e740a6dd04fec8354c9d5c04d866baeecOUT 0xbbf33a3c83cf86d0965a66e108669d272dfe42140 BNB0.0002563
0xdd29e56b0e0702bdfdd6888c7f6e4a0db1cb02f5ade020dab4ea25c0326546beTransfer120446652021-10-24 8:03:432 hrs 4 mins ago0x64ab414e740a6dd04fec8354c9d5c04d866baeecOUT 0xbbf33a3c83cf86d0965a66e108669d272dfe42140 BNB0.00018118
0x6cdc21429a9211919569a631bedc1ac0234deeb509df72cc01f2016b630ca2e0Transfer120446642021-10-24 8:03:402 hrs 4 mins ago0x64ab414e740a6dd04fec8354c9d5c04d866baeecOUT 0xbbf33a3c83cf86d0965a66e108669d272dfe42140 BNB0.00018124
0x03753352771d363dc7d12577c497f6d105c14862dfbd298a21015adf9f867d5bTransfer120446622021-10-24 8:03:342 hrs 4 mins ago0x64ab414e740a6dd04fec8354c9d5c04d866baeecOUT 0xbbf33a3c83cf86d0965a66e108669d272dfe42140 BNB0.00025624
0xbc25337260630dcb76eb196a204f3f6f4e24ada21a65ca90b15299ad1a7aa25bTransfer120446612021-10-24 8:03:312 hrs 4 mins ago0x64ab414e740a6dd04fec8354c9d5c04d866baeecOUT 0xbbf33a3c83cf86d0965a66e108669d272dfe42140 BNB0.00025624
0x06620ff915d6a8cedfa83dc4c22db1e6c90b4af58a99617e7493a3727e96df33Transfer120446582021-10-24 8:03:222 hrs 4 mins ago0x64ab414e740a6dd04fec8354c9d5c04d866baeecOUT 0xbbf33a3c83cf86d0965a66e108669d272dfe42140 BNB0.0002563
0xe98f46c858bc243dd3eb04379fec5d553555e75d9603cb3f44c2e3cbb6eb1fa1Transfer120446572021-10-24 8:03:192 hrs 4 mins ago0x64ab414e740a6dd04fec8354c9d5c04d866baeecOUT 0xbbf33a3c83cf86d0965a66e108669d272dfe42140 BNB0.00025624
0xf6b4fddfe6d4aa310d6741d5173f482d4f8d431319411235fa28d72487e37a9aTransfer120446572021-10-24 8:03:192 hrs 4 mins ago0x64ab414e740a6dd04fec8354c9d5c04d866baeecOUT 0xbbf33a3c83cf86d0965a66e108669d272dfe42140 BNB0.0002563
0xe79070368271716110acce18673d60833b5818e67e825287e8be71488fb09ddaTransfer120446562021-10-24 8:03:162 hrs 4 mins ago0x64ab414e740a6dd04fec8354c9d5c04d866baeecOUT 0xbbf33a3c83cf86d0965a66e108669d272dfe42140 BNB0.00025618
0xb8c984c3b49ab56d1e8a554f9b3802f1416e828ab078e8f0040e07162ae428d0Transfer120446562021-10-24 8:03:162 hrs 4 mins ago0x64ab414e740a6dd04fec8354c9d5c04d866baeecOUT 0xbbf33a3c83cf86d0965a66e108669d272dfe42140 BNB0.00025624
0x85d791f41c931bdc14e7354ff8252ec0bccd35e7b76005a0a36e5ccc791b4fbbTransfer120446562021-10-24 8:03:162 hrs 4 mins ago0x64ab414e740a6dd04fec8354c9d5c04d866baeecOUT 0xbbf33a3c83cf86d0965a66e108669d272dfe42140 BNB0.0002563
0xa6253fd5e4bf7aa1cebe293bfbda80aec7e5b46e56839cdc53dc23351e016bedTransfer120446562021-10-24 8:03:162 hrs 4 mins ago0x64ab414e740a6dd04fec8354c9d5c04d866baeecOUT 0xbbf33a3c83cf86d0965a66e108669d272dfe42140 BNB0.00025624
0x385ab9fee31539b60fdc8186b0445484824b5509b5a88fefe75447204fcde5cdTransfer120446562021-10-24 8:03:162 hrs 4 mins ago0x64ab414e740a6dd04fec8354c9d5c04d866baeecOUT 0xbbf33a3c83cf86d0965a66e108669d272dfe42140 BNB0.00025624
0x20a7e9918034252f536e8dad759d5730d44f7bf58ec4ad7c161d7fd10936877cTransfer120446562021-10-24 8:03:162 hrs 4 mins ago0x64ab414e740a6dd04fec8354c9d5c04d866baeecOUT 0xbbf33a3c83cf86d0965a66e108669d272dfe42140 BNB0.0002563
0xfef48a813ca21330ee9a4b7f9f0a17ea2b929d5b5a369ee69f519025ba5e25d7Transfer120446562021-10-24 8:03:162 hrs 4 mins ago0x64ab414e740a6dd04fec8354c9d5c04d866baeecOUT 0xbbf33a3c83cf86d0965a66e108669d272dfe42140 BNB0.0002563
[ Download CSV Export 
Parent Txn Hash Block From To Value
Loading

Contract Name:
0 BNB

Compiler Version
0

Optimization Enabled:
0 BNB

Other Settings:
-NA-
Block Transaction Gas Used Reward
Age Block Fee Address BC Fee Address Voting Power Jailed Incoming
Block Uncle Number Difficulty Gas Used Reward
Loading
Loading
Make sure to use the "Vote Down" button for any spammy posts, and the "Vote Up" for interesting conversations.